Vorticity
6 4 4 4 4 3 2 3 4 3 2 1 2 5 5 4 4 5 6 5 3 2 2 0 0 0 2 2 4 5 6 9 7 9 13 11 10 11 11 10 12 9 2 4 4 3 6 6 6 4 1 5 6 6 6 3 4 4 9 6 -2 2 -0 6 16 8 6 5 5 8 9 13 11 8 9 6 5 5 4 5 7 9 10 9 8 8 9 8
8 6 4 4 4 4 3 3 4 3 2 0 1 4 6 4 4 5 5 6 4 2 2 1 1 1 2 2 3 4 4 8 8 10 12 9 11 12 10 9 12 10 3 6 5 2 6 6 6 5 2 4 5 5 4 3 5 5 7 3 -1 3 2 8 13 9 8 7 9 10 10 13 12 8 7 8 6 3 4 6 8 8 6 6 6 7 8 8
8 8 6 4 4 4 4 3 3 3 2 1 0 2 5 4 4 4 5 7 6 3 3 2 1 1 2 2 3 2 2 8 9 11 11 9 12 13 11 8 10 10 6 7 5 3 6 5 7 6 2 2 2 4 3 2 2 1 4 2 3 6 4 6 10 11 12 9 8 6 6 9 9 8 6 7 7 4 4 6 8 8 5 5 5 7 7 7
8 8 7 6 4 4 5 4 4 4 3 2 1 1 4 5 4 4 4 6 7 4 2 2 1 1 2 2 4 1 2 7 7 9 11 10 12 12 12 9 9 11 8 7 6 5 5 4 7 6 3 3 2 2 3 3 1 -1 3 2 4 7 4 5 6 9 14 11 5 2 2 5 5 8 7 6 6 6 6 5 6 7 7 6 5 6 6 5
12 9 8 7 5 4 4 5 5 4 4 3 1 1 3 5 5 4 4 5 8 6 3 3 2 1 1 2 4 2 3 7 6 8 10 10 12 12 12 10 10 13 12 9 6 6 5 4 7 6 6 5 3 4 3 4 5 1 4 8 8 7 5 10 8 7 14 9 2 2 2 4 5 8 10 7 7 8 8 7 6 5 7 7 6 6 5 4
16 11 8 8 7 5 4 5 6 5 5 4 3 2 2 5 5 4 4 5 8 8 4 2 2 2 1 2 4 2 3 6 6 8 10 10 12 12 11 10 11 12 14 11 8 6 5 5 5 4 7 6 5 6 2 2 4 0 1 5 3 5 11 13 7 7 13 7 3 6 5 7 8 11 12 8 9 10 8 9 7 6 7 8 8 6 5 4
18 15 10 8 8 6 5 5 5 6 5 4 4 3 2 4 5 5 4 4 7 9 5 2 3 2 1 3 3 1 1 3 5 8 10 10 10 12 11 11 12 12 14 11 7 7 5 4 6 4 5 7 7 6 5 3 4 5 2 -2 -1 7 13 9 4 5 9 6 5 6 6 9 10 12 13 9 11 12 8 9 8 9 9 9 9 7 6 5
16 18 14 10 8 8 6 5 5 6 6 5 4 4 3 4 5 5 4 5 6 9 7 3 3 2 1 2 2 -0 1 2 3 7 10 10 9 11 12 11 13 13 13 10 8 7 5 4 6 5 5 8 9 7 8 4 2 7 3 1 7 8 7 6 4 3 4 6 6 6 7 10 10 11 12 10 12 11 7 7 7 9 10 10 11 9 7 6
11 18 17 12 9 8 8 7 5 6 6 6 5 5 5 4 5 6 5 5 6 8 8 4 2 3 1 2 4 1 1 1 2 6 9 10 9 10 11 10 13 14 11 9 8 7 5 6 5 5 5 7 9 8 9 6 2 4 1 4 11 7 4 6 5 2 4 6 6 7 9 9 9 10 11 10 10 9 7 7 8 9 10 11 12 11 9 7
7 14 18 15 11 9 9 8 6 6 6 6 6 5 5 5 5 6 6 5 5 7 9 6 2 3 1 1 4 2 3 2 2 6 7 8 9 10 11 11 12 13 10 8 8 8 5 6 5 4 6 6 9 8 7 7 3 1 2 4 5 3 1 4 4 1 3 5 5 7 10 10 7 5 7 7 9 10 8 7 7 9 10 10 11 12 12 10
5 10 16 16 12 10 10 9 7 7 6 6 6 6 5 6 6 6 6 4 5 7 9 8 4 2 1 1 2 2 4 2 1 5 6 8 10 10 11 12 14 11 9 8 8 7 5 5 4 3 6 5 7 7 5 10 7 1 3 5 4 -0 -2 5 7 2 2 3 1 3 10 12 5 2 5 6 9 11 9 8 7 8 10 10 9 10 12 12
6 7 13 16 14 11 11 10 8 8 7 6 7 6 5 5 6 6 6 4 4 6 8 9 6 2 1 2 2 0 3 3 2 4 6 8 10 10 10 11 13 10 9 9 7 7 5 5 4 3 6 6 7 6 4 8 7 3 4 10 12 4 2 7 6 4 0 -3 0 4 7 9 5 3 6 6 8 10 9 7 8 9 10 10 9 9 10 10
8 7 10 14 15 12 11 11 9 8 8 8 7 7 6 5 6 7 6 5 4 5 8 10 8 4 1 2 2 -0 1 2 2 3 5 8 9 11 11 10 9 6 9 10 7 7 5 4 4 4 5 6 10 9 6 9 9 4 4 8 12 9 8 6 4 7 3 -3 3 5 5 7 3 2 6 6 6 8 9 8 9 11 10 9 8 7 8 9
10 9 9 12 14 13 11 11 10 9 8 9 8 7 7 6 6 7 6 4 5 6 7 9 9 5 2 2 2 1 1 2 2 2 5 9 10 11 10 11 8 5 8 10 8 6 5 5 3 3 3 5 10 8 5 8 7 3 4 8 12 12 8 4 5 9 8 3 4 3 5 8 1 1 4 5 6 7 9 11 10 10 9 9 8 7 8 8
10 10 9 10 12 13 12 10 11 10 9 10 9 8 7 7 7 7 6 5 5 6 7 9 9 7 3 1 2 2 0 2 3 2 4 8 10 11 11 10 9 7 7 9 9 5 5 6 2 3 5 6 9 9 6 6 4 3 6 6 6 8 4 2 5 7 7 7 8 6 6 8 4 2 2 3 5 6 8 10 8 8 7 7 8 7 7 6
8 11 10 10 11 13 12 10 10 10 10 10 10 9 8 8 8 7 6 5 5 6 8 9 9 8 4 2 4 3 -0 2 4 2 3 6 9 11 11 9 9 8 6 8 8 5 5 4 3 5 6 8 10 10 6 2 4 6 7 1 -2 6 7 4 6 7 4 4 9 7 3 6 4 2 3 2 4 4 6 10 8 7 7 7 7 6 6 6
7 10 11 10 11 12 12 11 9 9 11 11 11 10 9 9 9 8 6 5 5 6 7 8 9 8 5 3 4 3 1 2 4 3 3 6 10 10 10 9 9 9 7 8 7 6 5 3 5 5 6 11 10 9 6 1 5 7 6 3 0 5 6 6 7 6 4 2 4 4 3 7 3 2 4 2 5 5 4 9 10 8 7 6 5 5 6 5
7 9 12 11 10 11 12 11 10 9 10 12 12 11 10 10 9 8 7 6 6 7 8 8 9 8 5 3 4 3 2 2 3 4 3 6 10 10 10 10 10 9 7 8 8 7 5 3 6 5 8 13 8 9 7 3 8 9 6 4 1 1 1 2 5 5 4 2 3 3 3 4 1 4 6 1 5 7 3 6 9 10 8 5 4 4 5 5
8 9 12 11 10 11 12 12 11 9 9 11 13 12 11 10 9 8 6 6 7 7 8 7 8 7 5 5 4 3 2 2 4 5 3 6 9 10 10 9 9 9 7 7 7 7 7 5 5 6 11 13 11 8 4 6 14 12 6 2 1 4 3 3 5 5 6 5 4 4 2 2 1 3 6 2 3 7 6 4 6 10 8 5 5 5 5 6
9 10 12 12 10 10 11 12 11 10 8 10 12 12 12 11 9 8 7 7 7 7 7 8 9 8 6 7 5 3 3 2 4 4 4 7 7 8 10 9 8 9 9 7 7 9 10 7 6 9 11 11 9 3 3 14 21 15 4 -3 -1 2 4 6 4 5 10 8 8 6 3 2 1 1 3 1 1 5 8 5 4 8 9 6 5 4 4 4
8 9 13 13 10 9 11 11 12 12 9 9 10 11 12 11 9 8 8 9 8 8 8 9 10 8 6 6 6 4 2 3 4 2 4 7 8 7 9 10 9 10 10 9 12 12 9 9 10 8 6 7 8 6 10 14 15 15 4 -4 0 -2 0 7 6 11 12 5 6 8 6 4 -0 -1 1 1 2 3 6 6 4 6 8 7 3 2 3 2
9 8 13 14 11 10 10 11 11 12 10 9 10 9 11 12 10 8 8 9 10 8 9 10 9 8 7 6 6 5 3 3 3 3 6 8 7 7 8 10 11 11 10 10 11 10 10 12 10 4 2 8 10 7 9 7 7 13 6 3 9 -1 -3 6 12 21 18 7 8 8 8 6 -1 -2 2 3 3 1 3 5 5 5 6 7 4 1 2 5
10 8 13 15 13 10 11 11 11 12 12 10 10 9 10 11 11 9 8 9 10 8 9 10 9 8 7 6 6 6 6 5 3 4 7 6 5 7 9 10 11 11 10 9 8 10 15 11 4 7 9 9 8 6 7 7 2 3 7 12 13 3 1 5 5 7 10 10 8 5 7 4 -3 -1 4 6 6 4 3 4 6 7 5 6 6 1 -1 4
11 7 11 17 15 10 11 11 10 12 14 11 10 9 9 11 10 9 9 9 10 9 8 9 10 9 7 5 5 4 6 6 4 5 7 6 6 7 8 9 11 12 10 8 7 9 14 9 4 11 13 7 7 6 6 6 -2 -6 5 12 10 11 11 8 1 -5 0 5 0 1 7 2 -2 1 4 7 10 10 8 5 4 6 6 5 6 4 0 3
12 6 10 18 17 11 11 11 9 12 15 13 11 11 9 10 10 9 9 10 10 9 8 9 11 9 7 6 3 2 4 4 4 5 5 5 6 7 9 9 11 11 9 9 8 4 7 11 9 9 9 8 9 7 3 4 2 -5 1 7 7 10 9 7 6 -2 -1 4 2 4 6 1 0 0 -0 2 6 12 15 11 4 3 6 5 4 4 5 7
13 6 8 17 18 13 11 11 10 11 15 15 13 12 10 9 10 9 9 10 10 9 8 9 10 9 9 8 5 3 3 3 4 4 3 3 3 6 9 7 8 10 9 9 7 5 8 11 8 8 10 8 7 5 -2 -0 6 1 0 5 5 4 3 6 7 -0 -1 7 8 7 4 3 4 -1 -2 -3 -3 7 18 16 8 4 5 5 3 2 4 8
13 8 7 15 18 14 11 11 11 10 13 16 14 13 12 10 10 9 8 10 10 10 7 7 9 9 8 8 8 6 3 5 5 2 1 2 4 5 5 6 8 10 11 10 7 5 10 10 5 8 10 6 6 3 -4 -1 7 3 -1 4 5 4 2 2 4 1 2 8 9 6 3 4 6 2 -0 -3 -6 1 16 17 10 6 5 5 6 2 1 5
12 9 8 14 17 14 12 12 10 9 13 15 14 15 14 11 11 9 7 8 10 11 7 6 8 9 9 7 7 6 5 7 6 2 1 2 6 6 3 6 6 5 11 14 8 3 6 8 6 6 8 6 3 -0 -0 4 4 -2 -1 6 6 4 3 2 0 -2 2 8 8 8 8 2 4 6 -0 -3 -3 0 11 17 12 7 4 4 7 5 0 1
11 9 9 15 16 13 13 13 10 8 13 14 12 14 15 12 12 10 7 7 10 10 7 6 7 7 8 7 6 7 7 7 4 4 6 5 7 5 1 7 7 4 7 4 4 8 7 6 6 5 7 4 -3 -3 4 6 3 1 3 8 6 4 8 10 8 4 5 8 5 6 8 1 2 7 0 -4 0 3 8 14 14 9 3 3 7 7 3 1
10 9 10 15 15 13 14 14 11 8 11 14 11 13 15 14 13 11 7 8 9 10 9 7 6 7 8 7 7 7 5 6 5 5 6 5 6 3 1 9 11 8 4 -5 2 14 10 6 7 2 0 2 1 1 4 4 5 6 2 5 7 6 9 11 11 7 3 6 10 10 9 1 -1 4 2 1 3 5 8 11 14 12 5 3 5 5 4 3
9 8 11 14 14 13 14 15 13 9 11 14 11 10 14 15 14 11 8 7 7 11 13 9 6 7 8 8 8 7 4 4 5 5 4 5 6 2 2 7 8 9 6 -2 4 11 7 5 7 3 -0 4 7 5 5 5 6 7 5 8 11 11 14 14 15 14 11 13 14 12 12 7 4 4 6 7 3 2 9 11 12 13 9 4 3 3 4 4
8 8 11 13 13 12 14 15 13 9 11 15 11 9 12 16 15 13 11 6 6 11 13 10 9 6 7 9 8 8 8 4 4 6 5 6 6 4 7 8 6 11 9 3 5 7 7 4 2 4 3 1 4 3 4 6 7 8 9 10 10 10 12 11 11 13 12 10 4 2 9 11 10 10 8 7 3 1 9 12 10 11 11 7 3 1 2 4
7 8 11 12 12 12 15 16 12 9 11 15 12 7 11 14 14 15 13 7 6 10 11 10 10 7 6 8 6 5 6 6 6 7 5 5 6 6 9 8 8 12 7 4 7 6 7 5 1 4 2 1 5 5 5 8 12 17 18 17 15 11 8 8 10 10 6 3 3 5 9 8 13 20 16 10 8 6 9 12 10 9 9 8 5 2 2 3
8 8 10 11 11 12 15 17 13 7 10 16 13 7 10 13 13 17 15 9 7 8 10 11 9 8 7 6 8 5 5 6 6 7 7 4 3 5 6 5 8 10 4 5 9 6 5 6 6 5 2 6 10 8 12 15 14 18 21 19 15 10 8 8 9 11 11 9 6 7 7 5 11 18 15 9 9 9 10 12 13 10 8 7 5 3 2 1
10 7 9 10 10 11 14 17 14 7 8 16 15 8 9 11 13 18 17 12 8 6 10 12 8 9 8 5 7 6 5 7 6 6 9 4 1 4 4 3 4 3 3 7 6 3 3 4 9 12 6 8 12 8 14 19 11 8 11 11 10 8 7 8 7 1 1 4 4 7 11 9 8 8 7 5 6 8 10 12 14 16 15 12 9 7 5 4
11 8 9 10 10 11 12 16 15 8 6 14 17 11 7 8 10 13 15 13 9 5 8 13 11 9 8 5 5 5 5 7 6 5 6 5 4 4 2 4 5 2 6 10 4 1 2 -3 2 13 11 8 11 10 11 13 9 5 6 9 13 11 8 13 16 7 2 5 7 10 13 13 12 11 8 6 6 6 7 7 9 12 16 17 17 14 10 9
12 8 10 12 11 11 12 14 14 9 5 11 19 15 7 8 10 11 13 13 11 8 5 10 15 11 9 8 5 5 5 5 5 5 4 5 3 2 1 3 6 5 5 6 3 5 8 3 3 9 10 9 11 12 9 5 4 6 7 9 13 11 8 8 9 10 13 13 9 9 11 11 11 12 8 5 6 6 3 3 4 5 9 13 16 15 12 10
12 8 11 13 12 12 12 13 13 9 6 9 17 18 9 7 12 11 11 12 11 9 4 6 14 11 8 10 7 6 5 3 4 4 4 5 1 -0 2 3 5 5 4 3 4 6 5 3 10 11 6 9 12 11 7 1 2 4 0 3 7 6 8 8 5 6 8 9 9 7 9 15 18 15 10 5 6 7 4 3 3 3 5 9 13 15 15 13
11 9 11 13 13 13 12 13 12 8 7 9 14 19 13 5 9 11 10 11 10 9 5 6 13 12 7 7 7 8 7 5 5 3 3 4 2 1 2 3 4 3 4 5 3 8 2 -6 8 17 8 7 9 7 5 -0 -1 -1 -3 2 6 2 3 5 3 3 2 6 10 5 6 20 22 12 8 8 7 8 8 7 7 7 7 8 11 13 15 16
11 9 12 14 13 14 14 13 11 7 9 10 11 20 18 6 7 11 9 10 10 8 6 7 11 14 10 6 5 8 7 5 6 4 3 3 3 3 3 5 6 2 5 7 2 9 9 -5 -0 13 10 6 4 2 4 3 2 2 3 7 8 5 7 5 0 3 8 11 12 7 5 13 10 2 6 9 7 9 11 11 11 11 9 8 7 8 9 10
10 9 12 14 12 14 15 13 11 7 9 12 13 21 22 8 4 10 10 9 10 9 8 7 8 12 13 7 5 8 7 4 5 5 4 4 5 5 4 4 5 3 4 7 5 9 13 5 -1 5 9 8 6 4 3 3 4 7 9 8 7 4 3 6 7 8 9 10 12 12 8 5 5 7 9 8 6 9 10 9 10 8 7 7 6 6 6 5
9 9 11 14 13 13 15 14 11 8 7 11 14 20 24 11 2 8 10 8 9 10 9 8 7 10 14 11 6 7 9 6 5 6 5 5 5 6 5 4 4 7 6 6 9 12 15 12 3 2 7 7 5 7 5 0 -1 6 10 6 5 4 1 6 10 7 4 5 9 14 11 8 10 9 9 10 9 9 7 7 8 7 7 8 7 7 7 7
8 8 10 13 13 13 14 13 11 9 7 10 13 19 27 16 2 5 10 8 8 9 9 9 7 7 11 14 11 9 12 10 6 7 6 5 5 4 6 7 6 9 10 6 8 11 15 17 8 1 4 4 4 9 8 2 -2 4 6 -1 -3 -1 1 5 3 1 7 9 10 13 9 10 11 2 2 10 10 9 9 8 7 7 7 8 8 8 7 7
9 8 9 12 13 12 14 13 10 9 8 11 11 17 27 20 3 3 9 9 8 8 8 8 8 7 7 13 14 10 11 11 7 6 5 5 6 5 7 10 8 7 6 4 6 9 13 19 15 6 3 3 6 7 4 1 2 6 6 4 4 -1 -3 3 -0 -0 6 4 4 8 4 6 8 -1 -1 8 10 11 11 8 7 6 5 4 5 6 7 7
10 9 8 10 12 12 13 13 11 8 9 11 10 14 25 23 7 2 7 9 10 9 8 8 8 7 6 10 14 10 4 3 3 4 4 4 5 6 7 10 9 6 5 5 7 7 9 16 20 13 7 6 5 2 0 5 12 11 4 7 15 9 3 6 6 7 8 -1 -3 4 3 4 5 -0 1 6 10 12 10 7 6 5 4 5 5 5 6 7
9 10 9 9 10 12 12 11 10 9 10 13 11 12 23 25 10 1 3 8 10 10 10 10 9 8 6 6 11 11 7 3 2 5 7 10 11 10 12 14 9 5 6 5 5 5 6 13 16 12 10 10 8 5 4 6 10 9 4 5 11 9 6 6 3 5 6 -0 -1 3 2 1 1 3 3 2 8 13 9 6 5 4 6 6 6 6 6 6
9 8 9 10 10 11 12 11 9 9 10 13 13 13 20 25 15 2 1 4 8 10 11 12 11 9 8 6 5 8 10 8 7 5 5 10 15 13 15 17 8 2 3 4 4 4 4 8 10 9 9 8 7 8 7 2 -1 -0 1 2 4 5 5 4 1 -0 -1 -0 2 0 -1 1 6 7 1 0 10 13 8 7 7 6 7 6 5 6 6 6
9 9 9 9 9 9 11 12 10 9 11 12 14 15 19 24 18 5 0 1 3 7 11 12 13 10 8 7 5 5 8 8 7 7 5 7 12 12 13 15 10 3 -0 0 5 6 4 5 6 6 6 4 2 5 6 0 -4 -4 -3 -2 -1 2 2 0 1 1 -0 1 1 -2 -3 2 7 5 -1 3 14 14 9 9 8 7 7 6 6 7 7 8
7 9 10 8 9 9 9 12 10 10 11 11 12 15 17 23 23 10 1 0 0 3 7 10 13 13 9 9 7 5 6 8 8 7 6 6 7 8 9 10 11 9 3 1 6 8 5 5 5 5 7 8 6 5 5 3 -0 -1 1 1 -0 1 1 -0 1 3 2 2 3 1 0 2 3 2 3 11 17 13 11 11 9 9 9 8 8 8 8 8
6 8 10 8 9 9 8 10 9 9 10 10 11 13 15 21 26 18 6 0 -1 -0 3 6 10 14 12 9 9 8 6 7 10 10 7 5 4 5 5 6 8 11 11 8 7 8 7 5 5 6 7 9 10 9 8 8 7 6 7 9 7 4 2 1 0 -0 -1 1 3 2 1 1 1 -1 3 14 17 13 12 12 10 10 9 7 8 7 7 7
7 6 9 8 8 9 9 9 9 8 9 9 10 12 13 16 24 25 16 5 -1 -2 0 3 5 10 14 10 8 8 7 5 7 10 11 8 4 3 4 6 8 11 15 13 7 5 7 6 4 3 5 7 10 10 8 7 7 6 4 3 2 0 0 1 1 1 2 3 3 2 2 2 2 0 4 14 17 13 11 10 10 10 9 8 8 7 7 7
10 7 8 9 9 8 9 9 9 8 8 8 9 10 11 12 17 24 24 16 7 -1 -1 1 0 2 10 14 10 6 6 6 5 5 9 11 9 6 4 5 7 10 15 15 8 3 4 5 5 2 2 4 3 2 5 6 5 5 5 3 1 0 1 2 3 4 6 5 3 4 4 1 0 1 6 14 17 13 10 10 10 10 9 9 9 9 9 9
Height
5896 5897 5899 5900 5902 5904 5905 5906 5908 5909 5910 5911 5912 5913 5914 5915 5915 5916 5916 5917 5917 5918 5918 5918 5918 5919 5919 5918 5918 5918 5917 5917 5917 5917 5917 5918 5918 5919 5919 5920 5921 5922 5923 5924 5925 5926 5927 5927 5928 5929 5930 5932 5933 5934 5934 5935 5936 5936 5936 5938 5940 5940 5939 5939 5937 5937 5937 5937 5936 5935 5935 5935 5934 5933 5933 5932 5932 5932 5932 5932 5932 5932 5932 5932 5932 5932 5932 5933
5894 5895 5896 5898 5900 5901 5903 5905 5906 5907 5908 5909 5911 5912 5913 5914 5915 5915 5915 5916 5917 5917 5918 5918 5918 5918 5918 5918 5918 5918 5917 5917 5917 5917 5917 5917 5918 5918 5919 5919 5920 5921 5922 5923 5925 5926 5927 5928 5928 5929 5930 5932 5933 5934 5935 5935 5936 5936 5938 5939 5940 5940 5940 5939 5938 5938 5937 5937 5937 5936 5935 5935 5934 5934 5933 5933 5933 5933 5932 5932 5932 5932 5933 5933 5933 5933 5933 5933
5891 5893 5894 5896 5897 5899 5901 5902 5904 5905 5906 5908 5909 5911 5912 5913 5914 5914 5915 5915 5916 5917 5917 5918 5918 5918 5918 5918 5918 5918 5917 5917 5917 5917 5917 5917 5917 5918 5918 5919 5920 5921 5922 5923 5925 5926 5927 5928 5928 5929 5930 5932 5933 5934 5935 5936 5937 5938 5939 5941 5940 5940 5940 5939 5939 5938 5938 5938 5937 5936 5936 5935 5935 5934 5934 5934 5934 5933 5932 5933 5933 5933 5933 5933 5933 5933 5933 5933
5889 5890 5892 5893 5895 5897 5899 5900 5902 5903 5904 5906 5907 5909 5910 5912 5912 5913 5914 5914 5915 5916 5917 5917 5917 5918 5918 5918 5918 5918 5918 5917 5917 5917 5917 5917 5917 5918 5918 5919 5920 5921 5922 5923 5924 5926 5927 5928 5929 5929 5930 5932 5933 5934 5936 5937 5938 5938 5940 5940 5940 5940 5940 5939 5939 5938 5938 5938 5937 5936 5936 5936 5936 5935 5934 5935 5935 5934 5933 5933 5933 5933 5933 5933 5933 5933 5933 5934
5886 5888 5889 5891 5892 5894 5896 5898 5899 5901 5902 5904 5905 5907 5909 5910 5911 5912 5913 5913 5914 5915 5916 5917 5917 5918 5918 5918 5918 5918 5918 5918 5917 5917 5917 5917 5917 5918 5918 5918 5919 5920 5921 5923 5924 5926 5927 5928 5929 5930 5931 5932 5934 5935 5936 5937 5938 5939 5939 5940 5940 5940 5940 5940 5939 5939 5939 5939 5937 5937 5936 5936 5936 5935 5935 5935 5935 5934 5934 5934 5933 5933 5933 5933 5933 5934 5934 5934
5884 5885 5887 5888 5890 5892 5894 5896 5897 5898 5900 5902 5904 5905 5907 5908 5909 5911 5911 5912 5913 5914 5915 5916 5917 5917 5918 5918 5918 5918 5918 5918 5917 5917 5917 5917 5917 5917 5918 5918 5919 5920 5921 5922 5924 5925 5927 5928 5929 5930 5931 5933 5934 5935 5936 5937 5938 5939 5939 5940 5940 5940 5940 5940 5940 5940 5940 5939 5938 5937 5936 5936 5935 5935 5935 5935 5935 5934 5934 5934 5934 5934 5934 5934 5934 5934 5934 5934
5882 5883 5884 5886 5888 5889 5891 5893 5895 5896 5898 5899 5902 5903 5905 5906 5908 5909 5910 5911 5912 5913 5914 5915 5916 5917 5918 5918 5918 5918 5918 5918 5917 5917 5917 5917 5917 5917 5918 5918 5919 5920 5921 5922 5924 5925 5926 5928 5929 5931 5932 5933 5934 5935 5936 5937 5938 5939 5939 5939 5939 5940 5940 5941 5940 5940 5941 5940 5938 5937 5936 5936 5936 5936 5936 5936 5935 5935 5934 5934 5934 5934 5934 5934 5934 5934 5934 5934
5880 5881 5882 5883 5885 5887 5889 5890 5892 5894 5895 5897 5899 5901 5903 5904 5906 5907 5909 5910 5911 5912 5913 5914 5915 5916 5917 5918 5918 5918 5918 5918 5917 5917 5917 5917 5917 5917 5918 5918 5919 5920 5921 5922 5923 5925 5926 5928 5929 5930 5932 5933 5934 5935 5936 5937 5938 5939 5939 5940 5940 5941 5941 5941 5941 5941 5941 5940 5939 5938 5937 5936 5936 5936 5936 5936 5936 5935 5935 5935 5934 5934 5934 5934 5934 5935 5934 5934
5877 5878 5879 5881 5882 5884 5886 5887 5889 5891 5893 5895 5897 5899 5900 5902 5904 5906 5907 5908 5910 5911 5912 5913 5914 5915 5916 5917 5917 5918 5918 5918 5917 5917 5917 5916 5917 5917 5918 5918 5919 5920 5921 5922 5923 5924 5926 5927 5929 5930 5932 5933 5934 5935 5936 5937 5939 5939 5940 5940 5940 5941 5941 5941 5941 5941 5941 5941 5939 5938 5937 5936 5936 5937 5937 5936 5936 5936 5935 5935 5935 5935 5935 5935 5935 5935 5935 5935
5875 5876 5877 5878 5879 5881 5883 5884 5886 5888 5890 5892 5895 5896 5898 5900 5902 5904 5905 5907 5908 5909 5910 5911 5913 5914 5915 5916 5917 5917 5917 5917 5917 5917 5916 5916 5916 5917 5917 5918 5918 5919 5920 5921 5923 5924 5925 5927 5929 5930 5932 5933 5934 5935 5936 5937 5939 5939 5940 5940 5940 5941 5942 5942 5941 5941 5941 5940 5939 5938 5938 5937 5937 5937 5937 5936 5936 5936 5936 5935 5935 5935 5935 5935 5935 5935 5935 5935
5872 5873 5875 5876 5877 5878 5880 5881 5883 5885 5887 5890 5892 5894 5896 5897 5899 5901 5903 5905 5906 5907 5908 5910 5911 5913 5914 5915 5916 5916 5917 5917 5917 5916 5916 5916 5916 5917 5917 5918 5918 5919 5920 5921 5922 5924 5925 5927 5928 5930 5931 5933 5934 5935 5936 5937 5938 5939 5940 5940 5941 5941 5942 5942 5942 5941 5941 5940 5939 5939 5938 5937 5937 5937 5937 5937 5937 5936 5936 5936 5936 5935 5935 5935 5935 5935 5935 5935
5869 5870 5872 5873 5875 5876 5877 5878 5880 5882 5884 5887 5889 5891 5893 5895 5897 5899 5901 5902 5904 5905 5907 5908 5909 5911 5912 5914 5915 5915 5916 5916 5917 5916 5916 5916 5916 5917 5917 5918 5918 5919 5919 5920 5922 5923 5925 5926 5928 5929 5931 5932 5933 5935 5936 5937 5938 5939 5939 5940 5940 5941 5942 5942 5942 5942 5941 5940 5940 5939 5939 5938 5937 5937 5937 5937 5937 5937 5936 5936 5936 5936 5936 5936 5936 5936 5936 5935
5865 5867 5869 5871 5872 5873 5874 5875 5877 5879 5881 5884 5886 5888 5890 5892 5895 5897 5898 5900 5902 5903 5904 5906 5908 5909 5911 5912 5913 5914 5915 5916 5916 5916 5916 5916 5916 5916 5917 5917 5918 5918 5919 5920 5921 5923 5924 5926 5927 5929 5930 5932 5933 5934 5935 5937 5938 5938 5939 5940 5940 5941 5942 5942 5942 5942 5941 5941 5940 5940 5939 5939 5937 5937 5937 5937 5937 5937 5938 5937 5937 5937 5936 5936 5936 5936 5936 5936
5862 5864 5865 5867 5869 5871 5872 5873 5874 5876 5878 5880 5883 5885 5887 5890 5892 5894 5896 5897 5899 5901 5902 5904 5905 5907 5909 5911 5912 5913 5914 5915 5915 5916 5915 5915 5915 5916 5916 5917 5917 5918 5919 5919 5920 5922 5923 5925 5927 5928 5930 5931 5932 5934 5935 5937 5938 5938 5939 5940 5940 5941 5941 5941 5942 5942 5941 5941 5941 5940 5940 5940 5938 5937 5937 5938 5938 5938 5939 5938 5938 5937 5937 5937 5936 5936 5936 5936
5859 5860 5862 5864 5866 5868 5869 5870 5871 5873 5875 5877 5880 5882 5884 5887 5889 5891 5893 5895 5897 5898 5900 5901 5903 5906 5907 5909 5910 5912 5913 5914 5915 5915 5915 5915 5915 5915 5916 5916 5917 5917 5918 5919 5920 5921 5923 5924 5926 5927 5929 5930 5932 5934 5935 5936 5937 5938 5939 5939 5939 5940 5940 5941 5941 5941 5941 5941 5941 5941 5941 5940 5939 5938 5938 5938 5938 5938 5939 5939 5939 5938 5938 5937 5937 5937 5936 5936
5856 5857 5859 5860 5862 5864 5866 5868 5869 5870 5872 5874 5876 5879 5881 5883 5886 5889 5890 5892 5894 5896 5897 5899 5901 5903 5905 5907 5909 5910 5911 5913 5913 5914 5914 5914 5914 5915 5916 5916 5916 5917 5918 5918 5919 5921 5922 5923 5925 5926 5928 5930 5932 5933 5934 5936 5936 5937 5939 5938 5939 5940 5940 5940 5941 5941 5941 5941 5941 5940 5941 5941 5940 5939 5938 5938 5938 5938 5939 5939 5939 5938 5938 5937 5937 5937 5937 5937
5853 5854 5856 5857 5859 5861 5863 5865 5866 5868 5869 5871 5873 5876 5878 5880 5883 5885 5888 5889 5891 5893 5895 5897 5899 5901 5903 5905 5906 5908 5910 5911 5912 5913 5914 5914 5914 5914 5915 5916 5916 5917 5917 5918 5919 5920 5921 5923 5924 5926 5928 5929 5931 5932 5934 5935 5936 5937 5938 5938 5939 5940 5940 5940 5941 5941 5941 5941 5940 5940 5940 5941 5940 5939 5939 5938 5938 5939 5939 5939 5939 5939 5938 5937 5937 5937 5937 5937
5850 5852 5853 5854 5855 5857 5859 5862 5864 5866 5867 5869 5870 5873 5875 5877 5880 5882 5884 5886 5889 5891 5892 5894 5896 5898 5900 5902 5904 5907 5908 5910 5911 5912 5913 5913 5913 5913 5914 5915 5916 5916 5917 5918 5918 5919 5921 5922 5923 5925 5927 5928 5930 5932 5934 5936 5936 5937 5937 5938 5939 5939 5939 5940 5940 5940 5941 5940 5940 5940 5940 5940 5940 5939 5939 5938 5938 5939 5939 5939 5939 5939 5938 5938 5938 5937 5937 5937
5847 5849 5850 5851 5852 5853 5855 5858 5861 5863 5865 5866 5868 5869 5872 5874 5876 5879 5881 5883 5886 5888 5890 5892 5894 5896 5898 5900 5903 5905 5906 5908 5909 5910 5911 5912 5912 5913 5913 5914 5915 5916 5916 5917 5918 5919 5920 5921 5922 5924 5926 5928 5930 5932 5934 5936 5937 5937 5938 5939 5939 5939 5939 5939 5939 5940 5940 5940 5940 5940 5940 5940 5940 5940 5940 5939 5938 5938 5939 5939 5939 5939 5939 5938 5938 5937 5937 5936
5844 5845 5847 5848 5849 5851 5852 5854 5857 5860 5862 5864 5865 5866 5868 5871 5873 5876 5878 5881 5883 5885 5887 5889 5891 5894 5896 5898 5900 5902 5904 5906 5908 5909 5910 5911 5911 5911 5912 5913 5914 5914 5915 5916 5917 5918 5919 5920 5922 5924 5926 5928 5930 5930 5932 5934 5935 5935 5937 5939 5939 5940 5939 5938 5939 5940 5940 5940 5940 5940 5940 5940 5939 5940 5940 5939 5939 5938 5939 5939 5939 5939 5939 5938 5938 5937 5937 5936
5841 5842 5844 5845 5847 5848 5849 5850 5853 5856 5859 5861 5863 5864 5865 5867 5870 5873 5876 5878 5880 5882 5884 5886 5889 5891 5894 5896 5898 5900 5902 5904 5906 5907 5908 5909 5910 5910 5911 5912 5912 5913 5914 5915 5916 5917 5918 5919 5921 5923 5925 5927 5928 5929 5931 5932 5933 5934 5936 5937 5939 5940 5939 5938 5938 5939 5939 5940 5940 5940 5940 5940 5939 5940 5940 5939 5939 5938 5938 5938 5938 5939 5939 5938 5938 5937 5937 5937
5838 5839 5841 5842 5844 5845 5846 5847 5849 5852 5855 5858 5861 5862 5862 5864 5867 5870 5873 5875 5877 5879 5882 5884 5886 5889 5891 5894 5896 5898 5900 5902 5904 5906 5907 5908 5908 5909 5910 5910 5911 5912 5913 5914 5915 5916 5917 5918 5920 5921 5923 5925 5927 5928 5930 5931 5932 5934 5935 5937 5938 5939 5938 5938 5938 5938 5939 5939 5939 5939 5939 5939 5939 5939 5939 5939 5939 5938 5938 5938 5938 5938 5938 5938 5938 5938 5937 5937
5835 5836 5838 5839 5841 5842 5844 5844 5846 5848 5851 5854 5857 5859 5860 5862 5864 5867 5870 5873 5875 5877 5879 5882 5884 5886 5889 5891 5894 5896 5898 5900 5902 5904 5905 5906 5907 5908 5908 5909 5910 5911 5912 5913 5914 5915 5916 5918 5919 5920 5922 5924 5925 5927 5929 5930 5932 5934 5935 5937 5938 5938 5937 5938 5938 5938 5938 5939 5939 5939 5939 5939 5938 5938 5938 5938 5938 5938 5937 5937 5937 5937 5937 5937 5937 5937 5937 5937
5832 5833 5835 5836 5838 5840 5841 5842 5843 5845 5847 5850 5854 5856 5858 5860 5861 5864 5867 5870 5873 5875 5877 5879 5882 5884 5886 5889 5891 5894 5896 5898 5900 5901 5903 5904 5905 5906 5907 5908 5909 5910 5911 5912 5913 5915 5916 5917 5918 5919 5921 5922 5924 5925 5927 5929 5931 5933 5934 5936 5937 5937 5938 5937 5937 5937 5938 5938 5938 5938 5938 5937 5937 5937 5938 5938 5937 5937 5936 5936 5936 5936 5937 5937 5936 5936 5936 5936
5829 5830 5832 5833 5835 5837 5838 5839 5840 5842 5843 5846 5850 5853 5856 5858 5859 5861 5864 5868 5871 5872 5874 5877 5879 5881 5884 5886 5888 5890 5893 5894 5896 5898 5900 5902 5903 5905 5906 5907 5908 5909 5910 5911 5912 5914 5914 5915 5917 5919 5920 5921 5922 5924 5926 5928 5930 5932 5932 5934 5935 5936 5937 5936 5936 5936 5936 5936 5937 5937 5936 5936 5936 5936 5936 5937 5937 5936 5936 5935 5935 5935 5935 5936 5936 5936 5936 5936
5826 5827 5829 5830 5831 5833 5836 5837 5838 5839 5841 5843 5846 5849 5853 5856 5857 5859 5862 5865 5868 5870 5872 5875 5877 5879 5881 5883 5885 5888 5889 5891 5893 5895 5897 5899 5901 5903 5904 5905 5906 5907 5908 5909 5910 5912 5913 5914 5916 5917 5919 5920 5921 5923 5925 5927 5930 5932 5931 5931 5932 5933 5935 5935 5935 5935 5935 5935 5935 5935 5935 5935 5935 5934 5934 5935 5936 5935 5935 5934 5934 5934 5934 5934 5934 5935 5935 5935
5823 5824 5826 5827 5828 5830 5833 5834 5836 5837 5838 5840 5842 5846 5850 5853 5856 5858 5860 5863 5865 5867 5870 5873 5874 5877 5879 5881 5883 5885 5886 5888 5891 5892 5894 5897 5899 5900 5902 5903 5904 5905 5906 5907 5909 5910 5912 5913 5915 5916 5918 5919 5921 5923 5924 5925 5929 5931 5929 5929 5930 5931 5932 5933 5934 5934 5934 5933 5933 5933 5934 5933 5933 5933 5933 5934 5934 5934 5934 5933 5932 5932 5933 5933 5933 5933 5934 5933
5820 5822 5823 5824 5825 5827 5829 5832 5833 5835 5836 5837 5839 5842 5846 5850 5853 5855 5858 5860 5861 5865 5868 5870 5872 5874 5876 5878 5880 5881 5884 5887 5888 5890 5892 5894 5896 5898 5899 5901 5902 5903 5904 5907 5908 5910 5911 5912 5914 5915 5917 5919 5920 5922 5922 5924 5927 5928 5927 5928 5929 5930 5931 5931 5932 5933 5932 5931 5931 5931 5931 5931 5931 5931 5931 5932 5932 5933 5932 5931 5931 5931 5931 5931 5931 5932 5932 5932
5817 5819 5820 5821 5822 5824 5826 5829 5831 5832 5834 5835 5836 5839 5842 5846 5850 5853 5855 5856 5859 5862 5865 5868 5870 5872 5874 5876 5877 5879 5882 5884 5886 5888 5890 5892 5894 5896 5897 5898 5899 5901 5903 5905 5906 5907 5909 5911 5912 5914 5916 5918 5918 5919 5921 5922 5924 5925 5925 5927 5928 5928 5929 5929 5930 5930 5930 5929 5929 5929 5929 5930 5930 5930 5930 5930 5931 5931 5931 5930 5930 5930 5930 5930 5930 5929 5930 5930
5815 5816 5817 5818 5819 5821 5823 5826 5828 5830 5831 5833 5834 5836 5839 5842 5846 5849 5851 5853 5856 5859 5862 5865 5867 5870 5872 5874 5876 5877 5879 5881 5884 5886 5888 5890 5892 5893 5895 5896 5897 5899 5901 5902 5903 5905 5908 5909 5911 5912 5914 5915 5916 5918 5919 5921 5922 5923 5924 5925 5926 5927 5927 5927 5927 5928 5928 5927 5928 5928 5928 5928 5929 5929 5928 5928 5928 5928 5929 5928 5928 5928 5928 5928 5928 5927 5927 5928
5812 5813 5814 5815 5816 5818 5820 5823 5825 5827 5829 5831 5832 5833 5836 5839 5842 5845 5847 5851 5854 5857 5860 5862 5865 5868 5870 5872 5874 5875 5877 5879 5881 5883 5886 5887 5889 5890 5892 5894 5896 5897 5899 5900 5902 5904 5907 5908 5910 5911 5912 5913 5915 5916 5918 5919 5920 5922 5922 5923 5924 5925 5925 5925 5925 5925 5926 5926 5926 5927 5926 5925 5926 5928 5927 5925 5925 5926 5926 5927 5926 5926 5927 5926 5926 5925 5925 5925
5809 5810 5811 5812 5813 5815 5817 5820 5823 5824 5826 5828 5830 5831 5833 5835 5838 5842 5846 5850 5852 5853 5856 5859 5862 5865 5868 5870 5872 5873 5876 5878 5879 5881 5884 5886 5887 5889 5891 5892 5894 5896 5898 5900 5901 5903 5905 5906 5908 5909 5910 5911 5913 5914 5916 5917 5918 5919 5920 5921 5922 5923 5923 5923 5923 5923 5924 5925 5924 5924 5924 5923 5923 5925 5925 5923 5923 5924 5924 5924 5924 5924 5925 5925 5924 5924 5923 5923
5805 5807 5808 5809 5810 5812 5815 5817 5820 5821 5823 5826 5827 5829 5830 5832 5835 5840 5845 5847 5848 5849 5852 5855 5859 5862 5865 5867 5869 5871 5873 5875 5878 5880 5881 5884 5886 5888 5889 5891 5893 5895 5898 5899 5901 5902 5903 5903 5905 5907 5908 5909 5911 5912 5913 5915 5916 5917 5918 5918 5920 5921 5921 5922 5922 5922 5923 5922 5921 5922 5922 5921 5921 5922 5922 5921 5921 5921 5921 5921 5922 5922 5923 5923 5922 5922 5921 5920
5802 5804 5805 5806 5808 5809 5812 5814 5816 5818 5820 5822 5825 5826 5827 5830 5834 5839 5842 5843 5844 5847 5850 5853 5856 5859 5862 5864 5866 5868 5871 5872 5875 5878 5879 5881 5883 5885 5887 5889 5891 5893 5895 5897 5899 5901 5902 5902 5903 5905 5906 5907 5909 5910 5911 5913 5914 5914 5915 5917 5919 5920 5920 5922 5922 5922 5923 5921 5918 5918 5919 5919 5920 5919 5918 5919 5919 5918 5919 5919 5919 5920 5920 5920 5920 5920 5919 5919
5799 5801 5802 5803 5805 5807 5809 5811 5813 5815 5817 5819 5822 5822 5825 5829 5833 5837 5838 5839 5842 5845 5847 5850 5853 5856 5858 5860 5863 5865 5868 5870 5873 5875 5877 5878 5880 5883 5885 5887 5889 5891 5892 5895 5897 5899 5901 5901 5901 5902 5904 5905 5907 5908 5909 5911 5912 5912 5913 5915 5916 5918 5919 5919 5920 5920 5921 5920 5917 5916 5916 5916 5917 5916 5916 5916 5916 5916 5916 5916 5916 5917 5917 5918 5917 5917 5917 5916
5796 5798 5799 5800 5802 5803 5805 5807 5810 5812 5814 5816 5818 5819 5823 5827 5829 5830 5832 5835 5839 5842 5845 5848 5850 5853 5855 5857 5860 5863 5865 5867 5870 5872 5874 5876 5879 5881 5883 5885 5888 5889 5891 5894 5895 5896 5900 5900 5899 5901 5902 5903 5905 5906 5907 5909 5911 5911 5912 5913 5914 5915 5916 5916 5917 5916 5916 5917 5915 5913 5914 5914 5914 5914 5913 5913 5913 5914 5914 5914 5914 5914 5915 5915 5915 5914 5914 5913
5793 5795 5796 5797 5798 5800 5802 5804 5806 5808 5810 5812 5814 5818 5822 5824 5824 5826 5829 5832 5836 5839 5843 5846 5848 5850 5853 5855 5857 5860 5862 5865 5867 5870 5872 5874 5876 5878 5880 5883 5885 5888 5890 5892 5893 5895 5898 5898 5897 5899 5901 5901 5903 5904 5905 5907 5908 5909 5911 5911 5911 5912 5913 5913 5914 5914 5914 5915 5914 5912 5912 5912 5912 5912 5911 5910 5911 5911 5911 5912 5911 5912 5912 5912 5911 5911 5910 5910
5790 5791 5793 5794 5795 5797 5799 5801 5803 5805 5806 5809 5812 5816 5819 5821 5822 5824 5826 5829 5833 5836 5840 5842 5843 5846 5849 5853 5856 5857 5859 5862 5864 5867 5869 5871 5874 5876 5878 5880 5882 5885 5887 5889 5891 5892 5895 5897 5895 5896 5898 5899 5901 5902 5903 5904 5905 5907 5908 5908 5909 5910 5911 5911 5911 5912 5913 5914 5914 5911 5910 5910 5910 5910 5908 5907 5908 5908 5908 5909 5909 5909 5909 5909 5908 5908 5907 5907
5786 5788 5790 5791 5792 5794 5796 5797 5799 5801 5803 5806 5810 5813 5817 5819 5821 5822 5824 5826 5830 5833 5836 5838 5840 5843 5846 5850 5853 5854 5857 5860 5862 5865 5867 5869 5871 5873 5876 5878 5880 5882 5884 5887 5889 5889 5891 5894 5894 5894 5896 5898 5898 5899 5900 5902 5903 5904 5905 5906 5907 5908 5909 5909 5909 5911 5911 5912 5913 5911 5909 5909 5908 5907 5905 5904 5905 5906 5906 5906 5906 5905 5905 5905 5905 5905 5904 5904
5783 5785 5787 5788 5789 5791 5793 5794 5796 5797 5800 5804 5807 5810 5814 5817 5818 5820 5822 5824 5827 5829 5832 5834 5838 5841 5844 5847 5849 5851 5854 5857 5859 5862 5864 5866 5869 5871 5874 5876 5877 5880 5882 5884 5885 5886 5888 5891 5891 5891 5892 5894 5895 5896 5898 5900 5901 5902 5903 5904 5905 5905 5906 5907 5907 5908 5908 5908 5909 5909 5909 5910 5907 5904 5903 5903 5903 5903 5903 5903 5902 5902 5902 5902 5902 5901 5901 5901
5779 5781 5783 5785 5786 5787 5789 5791 5792 5795 5798 5801 5804 5807 5811 5814 5815 5817 5819 5822 5824 5826 5829 5832 5835 5838 5841 5844 5846 5848 5852 5854 5856 5859 5861 5863 5866 5869 5872 5873 5875 5877 5879 5880 5882 5883 5885 5888 5888 5888 5889 5892 5892 5893 5896 5897 5898 5900 5901 5902 5903 5903 5903 5905 5905 5905 5905 5905 5905 5905 5907 5907 5903 5901 5901 5901 5901 5901 5900 5900 5899 5899 5899 5899 5898 5898 5898 5898
5776 5777 5780 5782 5783 5784 5786 5788 5789 5792 5795 5797 5800 5803 5807 5810 5812 5814 5816 5819 5821 5824 5826 5830 5833 5835 5838 5841 5842 5845 5849 5851 5853 5857 5858 5861 5865 5867 5868 5871 5872 5874 5876 5877 5878 5881 5882 5884 5886 5886 5887 5889 5889 5891 5894 5895 5896 5898 5899 5901 5902 5901 5901 5903 5904 5902 5901 5902 5902 5902 5903 5902 5899 5898 5899 5898 5898 5898 5897 5897 5897 5896 5896 5895 5895 5895 5895 5895
5772 5774 5777 5779 5780 5781 5783 5785 5787 5789 5791 5793 5796 5799 5803 5806 5808 5811 5813 5816 5818 5820 5823 5827 5830 5833 5835 5837 5840 5843 5846 5849 5851 5853 5856 5858 5861 5863 5865 5868 5870 5871 5873 5874 5875 5877 5879 5881 5883 5883 5884 5886 5886 5889 5892 5892 5893 5895 5896 5898 5899 5899 5900 5901 5900 5899 5899 5899 5899 5899 5900 5899 5897 5896 5896 5896 5895 5895 5894 5894 5894 5893 5893 5892 5892 5892 5892 5892
5768 5771 5773 5775 5776 5778 5780 5781 5784 5786 5787 5790 5793 5795 5799 5802 5805 5807 5810 5812 5814 5817 5820 5824 5827 5829 5832 5835 5838 5841 5843 5845 5848 5850 5852 5855 5857 5860 5862 5865 5866 5868 5869 5870 5873 5875 5876 5877 5879 5880 5881 5882 5884 5885 5887 5887 5889 5891 5892 5894 5895 5896 5897 5897 5896 5896 5896 5897 5896 5897 5898 5897 5895 5894 5893 5893 5892 5892 5891 5891 5890 5890 5889 5889 5889 5888 5888 5888
5765 5767 5769 5771 5773 5775 5776 5778 5780 5782 5784 5786 5788 5791 5795 5798 5801 5804 5806 5809 5812 5815 5818 5820 5823 5826 5830 5832 5835 5837 5840 5842 5844 5847 5849 5852 5855 5857 5860 5862 5864 5865 5867 5868 5870 5872 5873 5874 5875 5877 5878 5879 5880 5881 5883 5885 5887 5889 5889 5891 5892 5892 5893 5894 5893 5892 5893 5894 5893 5894 5896 5895 5892 5891 5890 5889 5889 5888 5888 5887 5887 5886 5886 5885 5885 5885 5885 5884
5761 5763 5765 5767 5769 5771 5773 5775 5777 5778 5780 5782 5784 5787 5791 5794 5798 5801 5803 5806 5808 5811 5814 5817 5820 5824 5827 5829 5832 5835 5838 5840 5842 5844 5847 5850 5852 5854 5857 5859 5861 5863 5864 5865 5867 5868 5869 5870 5872 5874 5876 5878 5879 5880 5882 5885 5886 5886 5887 5888 5889 5889 5890 5890 5889 5888 5889 5889 5889 5890 5892 5892 5890 5888 5886 5886 5885 5885 5884 5884 5883 5883 5882 5881 5881 5881 5880 5880
5757 5758 5761 5763 5765 5767 5769 5771 5773 5775 5777 5779 5781 5784 5787 5790 5794 5797 5799 5802 5805 5808 5811 5814 5817 5820 5822 5825 5829 5832 5834 5837 5839 5842 5845 5847 5849 5851 5854 5856 5858 5860 5861 5863 5864 5865 5867 5868 5870 5872 5873 5875 5877 5877 5880 5882 5882 5882 5883 5884 5885 5886 5886 5886 5886 5885 5886 5886 5885 5886 5887 5888 5889 5885 5883 5882 5882 5881 5881 5880 5880 5879 5878 5878 5877 5877 5876 5876
5752 5754 5757 5759 5761 5763 5766 5768 5770 5772 5774 5775 5777 5780 5783 5786 5789 5793 5795 5799 5802 5805 5808 5811 5813 5815 5819 5822 5825 5828 5831 5834 5836 5839 5841 5843 5846 5849 5851 5853 5855 5857 5859 5860 5861 5862 5865 5866 5867 5869 5871 5872 5873 5874 5876 5878 5878 5879 5880 5880 5881 5882 5882 5883 5882 5882 5883 5883 5882 5882 5882 5884 5885 5882 5880 5879 5879 5878 5878 5877 5876 5875 5875 5874 5874 5874 5873 5872
5748 5750 5753 5755 5757 5760 5762 5765 5767 5769 5771 5772 5774 5776 5779 5781 5785 5789 5792 5795 5799 5801 5804 5807 5809 5812 5816 5819 5822 5824 5827 5830 5833 5835 5838 5841 5843 5846 5847 5849 5852 5854 5856 5857 5858 5860 5862 5863 5864 5867 5868 5868 5870 5871 5873 5874 5875 5876 5876 5876 5877 5878 5879 5879 5879 5879 5880 5880 5879 5878 5878 5880 5881 5879 5877 5876 5875 5874 5874 5873 5872 5872 5871 5871 5871 5870 5869 5868
5744 5746 5748 5751 5753 5756 5759 5761 5763 5765 5767 5769 5771 5773 5775 5778 5781 5784 5788 5791 5794 5797 5800 5803 5806 5809 5812 5815 5818 5820 5823 5826 5829 5832 5835 5837 5840 5842 5843 5845 5848 5850 5853 5854 5855 5857 5859 5859 5861 5863 5864 5864 5866 5868 5869 5870 5872 5872 5872 5873 5874 5874 5875 5875 5875 5875 5876 5876 5875 5875 5874 5875 5876 5875 5874 5873 5871 5870 5869 5869 5868 5868 5868 5867 5867 5866 5866 5865
5739 5741 5744 5747 5749 5752 5755 5757 5760 5762 5763 5765 5767 5770 5772 5774 5777 5780 5783 5787 5790 5794 5797 5800 5803 5806 5809 5811 5813 5816 5820 5823 5825 5828 5831 5834 5836 5838 5839 5841 5844 5847 5849 5850 5852 5854 5855 5856 5858 5860 5860 5860 5862 5864 5865 5867 5868 5867 5867 5868 5870 5871 5871 5871 5871 5871 5872 5871 5871 5871 5870 5870 5869 5869 5869 5869 5867 5866 5865 5865 5864 5864 5864 5863 5862 5862 5861 5860
5735 5737 5740 5742 5745 5747 5750 5753 5756 5757 5759 5762 5764 5767 5769 5771 5774 5776 5779 5782 5786 5790 5793 5796 5800 5802 5804 5806 5809 5813 5816 5819 5822 5825 5827 5830 5832 5835 5836 5838 5841 5843 5845 5846 5849 5850 5851 5853 5854 5856 5857 5856 5857 5860 5862 5862 5862 5861 5861 5864 5867 5867 5866 5866 5866 5867 5867 5867 5867 5867 5866 5865 5863 5863 5864 5864 5862 5862 5861 5861 5860 5860 5859 5859 5858 5857 5857 5856